Weather History for Telluride, CO

Change the Weather History Date:

Saturday, April 21, 2012

  Actual Average Record
Temperature  
Mean Temperature 48 °F -  
Max Temperature 62 °F 46 °F 62 °F (2012)
Min Temperature 35 °F 27 °F 19 °F (2002)
Degree Days  
Heating Degree Days 16    
Moisture  
Dew Point 16 °F    
Average Humidity 32    
Maximum Humidity 70    
Minimum Humidity 11    
Precipitation  
Precipitation 0.00 in - - ()
Sea Level Pressure  
Sea Level Pressure 30.37 in    
Wind  
Wind Speed 4 mph (ENE)    
Max Wind Speed 9 mph    
Max Gust Speed -    
Visibility 10 miles    
Events      
Averages and records for this station are not official NWS values.
T = Trace of Precipitation, MM = Missing Value Source: NWS Daily Summary

Daily Weather History Graph

Daily Weather History Graph

Search for Another Location

Airport:

Trip Planner

Search our weather history database for the weather conditions in past years. The results will help you decide how hot, cold, wet, or windy it might be!

Date:

Astronomy

Apr. 21, 2012 Rise Set
Actual Time 6:27 AM MDT 7:53 PM MDT
Civil Twilight 5:59 AM MDT 8:21 PM MDT
Nautical Twilight 5:26 AM MDT 8:54 PM MDT
Astronomical Twilight 4:51 AM MDT 9:29 PM MDT
Moon 6:25 AM MDT (4/21) 8:36 PM MDT (4/21)
Length of Visible Light 14h 21m
Length of Day
13h 26m
New Moon, 0% of the Moon is Illuminated
Apr 21
New Moon
Apr 29
First Quarter
May 5
Full
May 12
Last Quarter
May 20
New

Hourly Weather History & Observations

Time (MDT) Temp. Windchill Dew Point Humidity Pressure Visibility Wind Dir Wind Speed Gust Speed Precip Events Conditions
1:35 AM 37.4 °F 32.8 °F 26.6 °F 65% 30.39 in 10.0 mi SE 5.8 mph - N/A   Unknown
1:55 AM 37.4 °F 32.8 °F 26.6 °F 65% 30.38 in 10.0 mi ESE 5.8 mph - N/A   Clear
2:15 AM 37.4 °F 33.8 °F 26.6 °F 65% 30.38 in 10.0 mi ESE 4.6 mph - N/A   Clear
2:35 AM 37.4 °F 32.1 °F 26.6 °F 65% 30.37 in 10.0 mi ESE 6.9 mph - N/A   Clear
2:55 AM 35.6 °F 31.7 °F 26.6 °F 70% 30.36 in 10.0 mi East 4.6 mph - N/A   Clear
3:15 AM 37.4 °F 34.9 °F 26.6 °F 65% 30.36 in 10.0 mi ENE 3.5 mph - N/A   Clear
4:15 AM 35.6 °F 29.9 °F 24.8 °F 65% 30.35 in 10.0 mi ESE 6.9 mph - N/A   Clear
4:35 AM 35.6 °F 32.8 °F 24.8 °F 65% 30.35 in 10.0 mi SE 3.5 mph - N/A   Clear
4:55 AM 35.6 °F 31.7 °F 23.0 °F 60% 30.35 in 10.0 mi ESE 4.6 mph - N/A   Clear
5:15 AM 35.6 °F 31.7 °F 23.0 °F 60% 30.35 in 10.0 mi SE 4.6 mph - N/A   Clear
5:35 AM 35.6 °F 30.7 °F 23.0 °F 60% 30.35 in 10.0 mi SE 5.8 mph - N/A   Clear
5:55 AM 35.6 °F - 23.0 °F 60% 30.36 in 10.0 mi Calm Calm - N/A   Clear
6:15 AM 35.6 °F 32.8 °F 23.0 °F 60% 30.36 in 10.0 mi East 3.5 mph - N/A   Clear
6:35 AM 35.6 °F - 23.0 °F 60% 30.36 in 10.0 mi Calm Calm - N/A   Clear
6:55 AM 35.6 °F 31.7 °F 23.0 °F 60% 30.36 in 10.0 mi SSE 4.6 mph - N/A   Clear
7:15 AM 35.6 °F 32.8 °F 23.0 °F 60% 30.37 in 10.0 mi SE 3.5 mph - N/A   Clear
7:35 AM 37.4 °F 33.8 °F 23.0 °F 56% 30.37 in 10.0 mi SE 4.6 mph - N/A   Clear
7:55 AM 41.0 °F - 24.8 °F 53% 30.38 in 10.0 mi Calm Calm - N/A   Clear
8:15 AM 41.0 °F - 23.0 °F 49% 30.38 in 10.0 mi Calm Calm - N/A   Clear
8:35 AM 42.8 °F - 24.8 °F 49% 30.38 in 10.0 mi Calm Calm - N/A   Clear
8:55 AM 46.4 °F - 23.0 °F 40% 30.38 in 10.0 mi Calm Calm - N/A   Clear
9:15 AM 50.0 °F - 23.0 °F 35% 30.38 in 10.0 mi Calm Calm - N/A   Clear
9:35 AM 51.8 °F - 14.0 °F 22% 30.38 in 10.0 mi NNE 9.2 mph - N/A   Clear
9:55 AM 55.4 °F - 12.2 °F 18% 30.38 in 10.0 mi NNE 8.1 mph - N/A   Clear
10:15 AM 55.4 °F - 12.2 °F 18% 30.38 in 10.0 mi North 6.9 mph - N/A   Clear
10:35 AM 55.4 °F - 10.4 °F 17% 30.39 in 10.0 mi NNE 4.6 mph - N/A   Clear
10:55 AM 55.4 °F - 10.4 °F 17% 30.38 in 10.0 mi NNE 8.1 mph - N/A   Clear
11:15 AM 57.2 °F - 12.2 °F 17% 30.39 in 10.0 mi NNE 6.9 mph - N/A   Clear
11:35 AM 57.2 °F - 12.2 °F 17% 30.39 in 10.0 mi NNE 6.9 mph - N/A   Clear
11:55 AM 59.0 °F - 14.0 °F 17% 30.39 in 10.0 mi NNE 6.9 mph - N/A   Clear
12:15 PM 59.0 °F - 12.2 °F 16% 30.39 in 10.0 mi North 4.6 mph - N/A   Clear
12:35 PM 59.0 °F - 14.0 °F 17% 30.38 in 10.0 mi NNE 4.6 mph - N/A   Clear
12:55 PM 60.8 °F - 12.2 °F 15% 30.38 in 10.0 mi NE 4.6 mph - N/A   Clear
1:15 PM 59.0 °F - 12.2 °F 16% 30.37 in 10.0 mi NE 5.8 mph - N/A   Clear
1:35 PM 60.8 °F - 12.2 °F 15% 30.38 in 10.0 mi NE 5.8 mph - N/A   Clear
1:55 PM 60.8 °F - 10.4 °F 14% 30.38 in 10.0 mi Calm Calm - N/A   Clear
2:15 PM 62.6 °F - 14.0 °F 15% 30.38 in 10.0 mi Calm Calm - N/A   Clear
2:35 PM 62.6 °F - 8.6 °F 12% 30.38 in 10.0 mi NE 4.6 mph - N/A   Clear
2:55 PM 62.6 °F - 8.6 °F 12% 30.36 in 10.0 mi NNE 3.5 mph - N/A   Clear
3:15 PM 60.8 °F - 5.0 °F 11% 30.36 in 10.0 mi Calm Calm - N/A   Clear
3:35 PM 62.6 °F - 10.4 °F 13% 30.36 in 10.0 mi Calm Calm - N/A   Clear
3:55 PM 62.6 °F - 8.6 °F 12% 30.35 in 10.0 mi North 3.5 mph - N/A   Clear
4:15 PM 62.6 °F - 6.8 °F 11% 30.34 in 10.0 mi North 3.5 mph - N/A   Clear
4:35 PM 62.6 °F - 8.6 °F 12% 30.34 in 10.0 mi Calm Calm - N/A   Clear
5:15 PM 62.6 °F - 8.6 °F 12% 30.34 in 10.0 mi Calm Calm - N/A   Clear
5:35 PM 60.8 °F - 8.6 °F 13% 30.34 in 10.0 mi North 3.5 mph - N/A   Clear
5:55 PM 60.8 °F - 6.8 °F 12% 30.34 in 10.0 mi NNW 4.6 mph - N/A   Clear
6:15 PM 60.8 °F - 12.2 °F 15% 30.34 in 10.0 mi Calm Calm - N/A   Clear
6:35 PM 59.0 °F - 12.2 °F 16% 30.34 in 10.0 mi North 3.5 mph - N/A   Clear
6:55 PM 57.2 °F - 12.2 °F 17% 30.34 in 10.0 mi Calm Calm - N/A   Clear
7:15 PM 55.4 °F - 12.2 °F 18% 30.34 in 10.0 mi North 3.5 mph - N/A   Clear
7:35 PM 55.4 °F - 12.2 °F 18% 30.35 in 10.0 mi Calm Calm - N/A   Clear
7:55 PM 53.6 °F - 12.2 °F 19% 30.35 in 10.0 mi Calm Calm - N/A   Clear
8:15 PM 53.6 °F - 10.4 °F 18% 30.36 in 10.0 mi NE 3.5 mph - N/A   Clear
8:35 PM 53.6 °F - 10.4 °F 18% 30.37 in 10.0 mi Calm Calm - N/A   Clear
8:55 PM 53.6 °F - 8.6 °F 16% 30.37 in 10.0 mi Calm Calm - N/A   Clear
9:15 PM 51.8 °F - 12.2 °F 21% 30.38 in 10.0 mi SE 6.9 mph - N/A   Clear
9:35 PM 50.0 °F - 15.8 °F 26% 30.39 in 10.0 mi ESE 8.1 mph - N/A   Clear
9:55 PM 50.0 °F - 14.0 °F 24% 30.39 in 10.0 mi East 8.1 mph - N/A   Clear
10:15 PM 46.4 °F 42.4 °F 14.0 °F 27% 30.40 in 10.0 mi SE 8.1 mph - N/A   Clear
10:35 PM 48.2 °F - 14.0 °F 25% 30.40 in 10.0 mi ESE 5.8 mph - N/A   Clear
10:55 PM 44.6 °F 43.1 °F 14.0 °F 29% 30.40 in 10.0 mi East 3.5 mph - N/A   Clear
11:15 PM 44.6 °F 40.7 °F 14.0 °F 29% 30.40 in 10.0 mi ESE 6.9 mph - N/A   Clear
11:35 PM 44.6 °F 40.2 °F 14.0 °F 29% 30.40 in 10.0 mi ESE 8.1 mph - N/A   Clear
11:55 PM 42.8 °F 38.0 °F 15.8 °F 34% 30.40 in 10.0 mi ESE 8.1 mph - N/A   Clear